Regional Weather Roundup
Issued by NWS

Home | Current Version | Previous Version | Text Only | Print | Product List | Glossary On
Versions: 1 2 3 4 5 6 7 8 9 10 11 12 13 14 15 16 17 18 19 20 21 22 23 24 25 26 27 28 29 30 31 32 33 34 35 36 37 38 39 40 41 42 43 44 45 46 47 48 49 50
000
ASUS44 KFWD 030715
RWRTX
NORTH TEXAS HOURLY WEATHER ROUNDUP
NATIONAL WEATHER SERVICE FORT WORTH TX
200 AM CDT TUE MAY 03 2016

NOTE: "FAIR" INDICATES FEW OR NO CLOUDS BELOW 12,000 FEET WITH NO
SIGNIFICANT WEATHER AND/OR OBSTRUCTIONS TO VISIBILITY.

TXZ118-119-030800-
DALLAS/FORT WORTH METROPLEX

CITY           SKY/WX    TMP DP  RH WIND       PRES   REMARKS
DFW AIRPORT    PTCLDY    55  45  68 CALM      30.09F
DALLAS LOVE    PTCLDY    51  47  86 CALM      30.10F
FTW MEACHAM    PTCLDY    52  48  86 W3        30.10F
DAL-EXECUTIVE  CLEAR     50  46  86 N3        30.09F
FTW-ALLIANCE   PTCLDY    48  46  93 CALM      30.10F
FTW-NAS-JRB    CLEAR     53  47  79 CALM      30.11F
FTW-SPINKS     CLEAR     47  46  97 CALM      30.12F
ARLINGTON      PTCLDY    50  46  86 CALM      30.10F
GRAND PRAIRIE  PTCLDY    55  46  71 CALM      30.12F
ADDISON        CLEAR     53  49  85 CALM      30.11F
MESQUITE       PTCLDY    51  48  89 CALM      30.10F
LANCASTER      PTCLDY    49  46  88 CALM      30.11F
$$

TXZ091>094-102>105-117-120-121-131>134-030800-
NORTH CENTRAL TEXAS

CITY           SKY/WX    TMP DP  RH WIND       PRES   REMARKS
SHRMAN/DENISON CLEAR     46  42  84 CALM      30.11F
GAINESVILLE    CLEAR     47  45  94 CALM      30.12F
BOWIE          CLEAR     47  45  94 CALM      30.11S
BRIDGEPORT     CLEAR     47  47 100 CALM      30.13F
DECATUR        CLEAR     51  44  78 SW5       30.12S
DENTON         CLEAR     47  46  97 CALM      30.10F
MCKINNEY       CLEAR     49  48  97 CALM      30.10F
GREENVILLE     PTCLDY    50  45  81 CALM      30.09F
ROCKWALL       CLEAR     51  50  95 CALM      30.09F
TERRELL        CLEAR     51  46  83 CALM      30.10F
WAXAHACHIE     CLEAR     49  46  90 N3        30.12F
CLEBURNE       CLEAR     52  50  93 CALM      30.12F
GRANBURY       PTCLDY    49  47  93 CALM      30.12F
$$

TXZ083>090-098>101-113>116-127>130-139>142-154-155-030800-
WESTERN NORTH TEXAS

CITY           SKY/WX    TMP DP  RH WIND       PRES   REMARKS
WICHITA FALLS  CLEAR     49  44  83 SW6       30.11F
WF-KICKAPOO    CLEAR     53  46  79 SE6       30.13S
ABILENE        CLEAR     49  46  90 S7        30.12F
BRECKENRIDGE   CLEAR     52  49  88 CALM      30.11F
GRAHAM         PTCLDY    46  46  98 CALM      30.11F
MINERAL WELLS  CLEAR     50  46  86 CALM      30.10F
STEPHENVILLE   CLEAR     48  46  90 CALM      30.14F
COMANCHE       CLEAR     51  48  89 CALM      30.13F
BROWNWOOD      CLEAR     48  48 100 CALM      30.13S
COLEMAN        CLEAR     48  47  95 CALM      30.13F
$$

TXZ143>147-156>162-174-175-030800-
CENTRAL TEXAS

CITY           SKY/WX    TMP DP  RH WIND       PRES   REMARKS
WACO           CLEAR     52  49  89 NW7       30.10F
WACO-MCGREGOR  CLEAR     51  49  92 NW6       30.10F
HILLSBORO      PTCLDY    47  46  95 N3        30.10F
CORSICANA      CLEAR     54  48  80 N9        30.10F
HEARNE         MOCLDY    54  51  91 CALM      30.10S
TEMPLE         CLEAR     50  49  96 N6        30.10F
KILLEEN        NOT AVBL
KILLEEN-SKYLRK PTCLDY    52  50  93 NW5       30.11F
GATESVILLE     CLEAR     52  48  87 MISG      30.13F
HAMILTON       CLEAR     52  48  87 CALM      30.12F
LAMPASAS       CLEAR     53  50  90 NW6       30.10F
$$

TXZ095>097-106>112-122>126-135>138-148>153-164>167-030800-
EAST TEXAS

CITY           SKY/WX    TMP DP  RH WIND       PRES   REMARKS
PARIS          CLEAR     48  39  71 NW6       30.09S
SULPHUR SPRNGS CLEAR     54  50  87 NW7       30.10F
MOUNT PLEASANT CLEAR     50  49  95 CALM      30.09F
GILMER         PTCLDY    51  48  92 CALM      30.07F
MINEOLA        CLEAR     52  48  87 CALM      30.09F
TYLER          CLEAR     52  48  86 NW5       30.07F
LONGVIEW       CLEAR     53  50  89 NW5       30.06F
MARSHALL       PTCLDY    53  49  87 CALM      30.08F
PALESTINE      PTCLDY    52  50  93 CALM      30.09F
JACKSONVILLE   PTCLDY    53  50  90 N3        30.08F
HENDERSON      CLEAR     53  49  89 CALM      30.08F
NACOGDOCHES    PTCLDY    55  52  88 N6        30.05F
LUFKIN         PTCLDY    57  51  80 N6        30.05S
$$

SUPPLEMENTAL OBSERVATIONS (CENTRAL)

CITY           SKY/WX    TMP DP  RH WIND       PRES   REMARKS
LAKE TEXOMA      N/A     54  48  82 SW3         N/A
PAT MAYSE LAKE   N/A     46  45  93 N2          N/A
LAKE LIMESTONE   N/A     55  50  82 N3          N/A
MCGREGOR         N/A     52  48  87 N1          N/A
TEMPLE           N/A     55  46  71 N1          N/A
$$

SUPPLEMENTAL OBSERVATIONS (WEST)

CITY           SKY/WX    TMP DP  RH WIND       PRES   REMARKS
MILLERS CREEK    N/A     54  46  76 SE3         N/A
POSSUM KINGDOM   N/A     52  46  82 SE6         N/A
GRANBURY         N/A     46  41  81 W2          N/A
COMANCHE         N/A     52  46  82 S5          N/A
HAMBY            N/A     46  43  87 SE1         N/A
IVIE RESERVOIR   N/A     48  43  81 CALM        N/A
COLORADO BEND    N/A     48  45  87 CALM        N/A
$$

SUPPLEMENTAL OBSERVATIONS (EAST)

CITY           SKY/WX    TMP DP  RH WIND       PRES   REMARKS
TEXARKANA        N/A     54  50  87 NW3         N/A
LINDEN           N/A     54  50  87 N2          N/A
CADDO LAKE       N/A     52  48  87 CALM        N/A
GILMER           N/A     52  48  87 NW1         N/A
HENDERSON        N/A     54  50  87 VRB2        N/A
LUFKIN           N/A     57  50  77 MISG        N/A
N SABINE NF      N/A     57  52  82 MISG        N/A
$$

SUPPLEMENTAL OBSERVATIONS ARE A COLLECTION OF AUTOMATED INSTRUMENTS
THAT ARE MAINTAINED BY A VARIETY OF FEDERAL AND STATE AGENCIES.
CERTAIN ELEMENTS...SUCH AS HUMIDITY VALUES AND SUSTAINED WIND
SPEEDS...MAY BE APPROXIMATED.





USA.gov is the U.S. government's official web portal to all federal, state and local government web resources and services.